Location: Pinon Hills
(34.4429°N, 117.6403°W)
Time: 16:16:21
(UTC-08:00)

Amateur Radio Satellites - All Passes

Search period start: 24 February 2017 15:46
Search period end: 25 February 2017 15:46
Location: Pinon Hills, 34.4429°N, 117.6403°W

Satellite Date Start Highest point End Downlink Frequencies (MHz)
Time Altitude Azimuth
CUBESAT XI-V 24 Feb 15:50:30 15:54:09 23° 95° (E) 15:57:46 437.345
CUTE-I 24 Feb 15:55:00 15:55:50 10° 61° (ENE) 15:56:41 437.470
Tancredo 1 24 Feb 15:55:01 15:57:34 22° 231° (SW) 16:00:06 437.200
NO-84 24 Feb 15:55:11 15:57:54 29° 126° (SE) 16:00:52 435.350 FM
ITUPSAT 1 24 Feb 15:55:37 15:58:40 17° 294° (WNW) 16:01:43 437.325
BEESAT 24 Feb 16:03:20 16:05:45 14° 295° (WNW) 16:08:12 436.000
STARS 24 Feb 16:07:25 16:11:04 25° 97° (E) 16:14:42 437.465
BEESAT 3 24 Feb 16:22:47 16:25:37 19° 250° (WSW) 16:28:26 437.485
MOZHAYETS 4 24 Feb 16:31:09 16:34:12 18° 292° (WNW) 16:37:13
AO-7 24 Feb 16:35:20 16:39:38 15° 268° (W) 16:43:58 .
DOVE 4 24 Feb 16:47:37 16:51:23 35° 73° (ENE) 16:55:10 437.250
PCSat 24 Feb 16:47:50 16:52:36 31° 303° (WNW) 16:57:25 145.827
M-CUBED/EXP-1 PRIME 24 Feb 16:51:11 16:54:47 36° 104° (ESE) 16:58:37 437.505
KAITUO 1B 24 Feb 16:52:31 16:55:48 28° 73° (ENE) 16:59:05 145.475/437.950
XW-2F 24 Feb 16:55:35 16:59:08 37° 74° (ENE) 17:02:43 145.980 - 146.000
BEESAT 2 24 Feb 16:59:09 17:02:01 19° 250° (WSW) 17:04:53 435.950
XW-2D 24 Feb 16:59:35 17:03:16 45° 75° (ENE) 17:06:58 145.860 - 145.880
XW-2B 24 Feb 17:04:33 17:08:17 51° 75° (ENE) 17:12:02 145.730 - 145.750
KKS-1 24 Feb 17:07:17 17:11:03 27° 290° (WNW) 17:14:48 437.445
XW-2C 24 Feb 17:13:04 17:16:52 70° 77° (ENE) 17:20:43 145.795 - 145.815
CUBESAT XI-V 24 Feb 17:27:34 17:31:26 28° 289° (WNW) 17:35:19 437.345
NUDT-PHONESAT 24 Feb 17:27:53 17:31:38 89° 74° (ENE) 17:35:26 437.300
LilacSat-2 24 Feb 17:29:02 17:32:52 67° 259° (W) 17:36:45 437.200
CUTE-I 24 Feb 17:29:45 17:35:04 86° 257° (WSW) 17:40:27 437.470
NO-84 24 Feb 17:33:12 17:35:37 19° 324° (NW) 17:38:11 435.350 FM
CUTE 1.7 + AOD 2 24 Feb 17:41:52 17:44:16 15° 68° (ENE) 17:46:41 437.475
RS-15 24 Feb 17:41:54 17:53:43 72° 301° (WNW) 18:06:06 29.354- 29.394
STARS 24 Feb 17:43:42 17:47:17 24° 290° (WNW) 17:50:51 437.465
HO-68 24 Feb 18:00:28 18:07:10 44° 68° (ENE) 18:13:51 435.675
M-CUBED/EXP-1 PRIME 24 Feb 18:26:50 18:29:00 15° 295° (WNW) 18:31:14 437.505
DOVE 4 24 Feb 18:27:02 18:29:13 14° 267° (W) 18:31:23 437.250
KAITUO 1B 24 Feb 18:27:35 18:29:49 15° 266° (W) 18:32:05 145.475/437.950
UWE-3 24 Feb 18:30:58 18:33:29 15° 66° (ENE) 18:36:01 435.000/436.395/437.385
AAUSAT CUBESAT 2 24 Feb 18:31:45 18:34:27 17° 69° (ENE) 18:37:09 437.432
XW-2F 24 Feb 18:32:07 18:33:25 11° 268° (W) 18:34:42 145.980 - 146.000
SEEDS 24 Feb 18:38:44 18:42:46 44° 74° (ENE) 18:46:49 437.485
XW-2A 24 Feb 18:53:08 18:56:15 35° 262° (W) 18:59:25 145.665 - 145.685
ZACube-1 24 Feb 18:53:32 18:56:11 16° 67° (ENE) 18:58:50 437.345
STRAND 1 24 Feb 19:11:01 19:16:11 76° 102° (ESE) 19:21:18 437.568
CUTE 1.7 + AOD 2 24 Feb 19:15:44 19:19:44 39° 262° (W) 19:23:45 437.475
CUBEBUG 2 24 Feb 19:26:12 19:30:33 76° 259° (WSW) 19:35:06 437.445
AO-73 24 Feb 19:40:32 19:44:46 48° 74° (ENE) 19:49:08 145.935
Oscar 11 24 Feb 19:48:15 19:52:28 51° 75° (ENE) 19:56:42 .
HO-68 24 Feb 19:48:46 19:54:55 31° 263° (W) 20:01:07 435.675
RS-15 24 Feb 20:00:02 20:08:57 23° 328° (NNW) 20:18:02 29.354- 29.394
UWE-3 24 Feb 20:05:18 20:09:29 43° 262° (W) 20:13:48 435.000/436.395/437.385
AAUSAT CUBESAT 2 24 Feb 20:05:55 20:09:38 31° 263° (W) 20:13:21 437.432
DELFI C3 24 Feb 20:09:51 20:13:07 25° 72° (ENE) 20:16:22 145.870
JUGNU 24 Feb 20:16:17 20:18:41 13° 166° (SSE) 20:21:04 437.505
SEEDS 24 Feb 20:16:59 20:18:38 12° 268° (W) 20:20:17 437.485
ZACube-1 24 Feb 20:27:53 20:32:02 41° 262° (W) 20:36:19 437.345
PRISM 24 Feb 20:33:49 20:36:53 20° 96° (E) 20:39:57 437.425
YUBILEINY 24 Feb 20:39:52 20:47:55 40° 76° (ENE) 20:55:53 435.215
STRAND 1 24 Feb 20:53:09 20:54:39 11° 298° (WNW) 20:56:08 437.568
LO-87 24 Feb 21:06:30 21:07:42 11° 68° (ENE) 21:08:54 145.935 - 145.965
AO-73 24 Feb 21:19:24 21:21:15 12° 269° (W) 21:23:07 145.935
Oscar 11 24 Feb 21:27:41 21:28:50 11° 268° (W) 21:29:58 .
SO-50 24 Feb 21:28:06 21:32:40 51° 115° (ESE) 21:37:11 436.795
ESTCUBE 1 24 Feb 21:42:09 21:45:30 21° 69° (ENE) 21:48:50 437.505/2401.250
FO-29 24 Feb 21:42:17 21:48:47 31° 94° (E) 21:54:42 435.910
DELFI C3 24 Feb 21:45:01 21:47:50 19° 265° (W) 21:50:40 145.870
JUGNU 24 Feb 22:03:01 22:06:57 18° 176° (S) 22:10:53 437.505
UNISAT 6 24 Feb 22:07:32 22:12:14 74° 284° (WNW) 22:16:51 437.425
TIGRISAT 24 Feb 22:08:00 22:12:43 80° 283° (WNW) 22:17:21 435.000
PRISM 24 Feb 22:08:46 22:12:05 24° 289° (WNW) 22:15:24 437.425
VELOX 1 24 Feb 22:11:22 22:13:28 13° 66° (ENE) 22:15:32 145.980
AIST 2D 24 Feb 22:12:07 22:13:19 11° 93° (E) 22:14:31 435.315
O/OREOS (USA 219) 24 Feb 22:14:13 22:18:38 71° 108° (ESE) 22:23:07 437.305
RS-15 24 Feb 22:23:26 22:28:38 13° 5° (N) 22:33:48 29.354- 29.394
SPROUT 24 Feb 22:23:28 22:25:38 14° 67° (ENE) 22:27:47 437.525
YUBILEINY 24 Feb 22:36:45 22:44:32 38° 273° (W) 22:52:19 435.215
LO-87 24 Feb 22:37:37 22:40:48 32° 262° (W) 22:44:01 145.935 - 145.965
SRMSAT 24 Feb 23:02:12 23:05:10 14° 167° (SSE) 23:08:08 437.500
DUCHIFAT 1 24 Feb 23:03:58 23:07:40 28° 97° (E) 23:11:20 145.980
50 SAT 24 Feb 23:08:17 23:11:31 36° 74° (ENE) 23:14:45 437.505
SO-50 24 Feb 23:10:21 23:13:24 17° 311° (NW) 23:16:25 436.795
EO-79 24 Feb 23:13:48 23:17:56 46° 99° (E) 23:22:02 145.935-145.965
ESTCUBE 1 24 Feb 23:18:05 23:22:04 30° 263° (W) 23:26:04 437.505/2401.250
FO-29 24 Feb 23:26:47 23:33:52 44° 292° (WNW) 23:40:18 435.910
NANOSAT C BR1 24 Feb 23:31:01 23:35:17 70° 101° (E) 23:39:31 145.865
POLYITAN 1 24 Feb 23:31:02 23:35:20 77° 101° (E) 23:39:37 437.675
QB50P2 24 Feb 23:33:58 23:38:17 89° 270° (W) 23:42:34 145.880/145.840
DX 1 24 Feb 23:38:21 23:42:35 58° 75° (ENE) 23:46:50 434.975-435.025
AIST 2D 24 Feb 23:43:27 23:46:37 31° 286° (WNW) 23:49:46 435.315
VELOX 1 24 Feb 23:45:15 23:49:28 46° 260° (W) 23:53:41 145.980
UKube-1 24 Feb 23:51:27 23:55:40 57° 75° (ENE) 23:59:53 .
JUGNU 24 Feb 23:51:29 23:55:15 17° 187° (S) 23:59:02 437.505
SPROUT 24 Feb 23:57:07 00:01:08 41° 261° (W) 00:05:11 437.525
PCSat 24 Feb 23:57:13 23:59:46 13° 48° (NE) 00:02:20 145.827
BUGSAT 1 25 Feb 00:02:44 00:06:50 46° 100° (E) 00:10:55 437.445
NO-84 25 Feb 00:08:28 00:12:36 52° 45° (NE) 00:16:55 435.350 FM
RS-15 25 Feb 00:37:00 00:47:22 30° 40° (NE) 00:57:22 29.354- 29.394
DUCHIFAT 1 25 Feb 00:40:01 00:43:07 20° 291° (WNW) 00:46:12 145.980
SRMSAT 25 Feb 00:49:29 00:53:38 19° 177° (S) 00:57:47 437.500
EO-79 25 Feb 00:51:19 00:53:15 13° 293° (WNW) 00:55:11 145.935-145.965
Oscar 19 25 Feb 00:53:04 00:57:56 43° 99° (E) 01:02:47 437.125/150
ITUPSAT 1 25 Feb 01:19:54 01:24:12 34° 71° (ENE) 01:28:31 437.325
BEESAT 25 Feb 01:26:35 01:31:03 41° 72° (ENE) 01:35:32 436.000
Gurwin Techsat 1B 25 Feb 01:34:25 01:39:41 61° 101° (E) 01:44:55 435.225
PCSat 25 Feb 01:38:23 01:43:50 84° 245° (WSW) 01:49:14 145.827
BUGSAT 1 25 Feb 01:39:54 01:41:45 13° 293° (WNW) 01:43:35 437.445
JUGNU 25 Feb 01:42:32 01:43:31 10° 196° (SSW) 01:44:30 437.505
NO-84 25 Feb 01:47:10 01:50:03 17° 238° (WSW) 01:52:58 435.350 FM
MOZHAYETS 4 25 Feb 01:51:42 01:55:25 24° 70° (ENE) 01:59:10
KKS-1 25 Feb 02:26:51 02:29:09 14° 66° (ENE) 02:31:27 437.445
Oscar 19 25 Feb 02:33:22 02:36:53 19° 294° (WNW) 02:40:25 437.125/150
SRMSAT 25 Feb 02:38:18 02:42:07 17° 188° (S) 02:45:56 437.500
AO-7 25 Feb 02:43:52 02:51:27 38° 100° (E) 02:58:58 .
RS-15 25 Feb 02:49:06 03:01:25 84° 244° (WSW) 03:13:06 29.354- 29.394
CUBESAT XI-V 25 Feb 02:51:08 02:53:57 16° 67° (ENE) 02:56:46 437.345
ITUPSAT 1 25 Feb 02:58:27 03:02:02 21° 265° (W) 03:05:38 437.325
STARS 25 Feb 03:01:42 03:04:07 15° 66° (ENE) 03:06:33 437.465
ITAMSAT 1 25 Feb 03:04:53 03:10:08 79° 103° (ESE) 03:15:21 435.822/435.867
BEESAT 25 Feb 03:05:51 03:08:56 17° 266° (W) 03:12:02 436.000
AO-85 25 Feb 03:11:05 03:15:19 34° 114° (ESE) 03:19:16 145.980
Gurwin Techsat 1B 25 Feb 03:16:11 03:19:04 15° 296° (WNW) 03:21:56 435.225
MOZHAYETS 4 25 Feb 03:28:30 03:32:26 27° 264° (W) 03:36:23
M-CUBED/EXP-1 PRIME 25 Feb 03:35:19 03:37:49 20° 67° (ENE) 03:40:17 437.505
KKS-1 25 Feb 04:01:04 04:05:17 45° 260° (W) 04:09:32 437.445
CUBESAT XI-V 25 Feb 04:26:30 04:30:56 43° 261° (W) 04:35:22 437.345
BEESAT 3 25 Feb 04:33:54 04:34:51 11° 107° (ESE) 04:35:48 437.485
STARS 25 Feb 04:35:57 04:40:04 41° 261° (W) 04:44:13 437.465
AO-7 25 Feb 04:36:30 04:44:09 43° 296° (WNW) 04:51:46 .
ITAMSAT 1 25 Feb 04:47:23 04:48:52 11° 298° (WNW) 04:50:20 435.822/435.867
DOVE 4 25 Feb 04:50:03 04:52:49 15° 94° (E) 04:55:39 437.250
AO-85 25 Feb 04:52:15 04:55:44 21° 307° (NW) 04:59:04 145.980
NUDT-PHONESAT 25 Feb 05:04:30 05:05:27 11° 92° (E) 05:06:22 437.300
RS-15 25 Feb 05:05:07 05:11:53 17° 262° (W) 05:18:32 29.354- 29.394
LilacSat-2 25 Feb 05:06:55 05:09:22 16° 94° (E) 05:11:49 437.200
M-CUBED/EXP-1 PRIME 25 Feb 05:10:18 05:12:15 15° 259° (W) 05:14:12 437.505
BEESAT 2 25 Feb 05:11:12 05:12:32 11° 108° (ESE) 05:13:52 435.950
CUTE-I 25 Feb 05:50:30 05:55:45 51° 100° (E) 06:00:57 437.470
KAITUO 1B 25 Feb 06:00:39 06:04:24 67° 101° (E) 06:08:06 145.475/437.950
SO-50 25 Feb 06:03:39 06:06:48 18° 50° (NE) 06:09:54 436.795
XW-2F 25 Feb 06:05:01 06:08:50 85° 282° (WNW) 06:12:37 145.980 - 146.000
BEESAT 3 25 Feb 06:08:13 06:11:57 46° 302° (WNW) 06:15:47 437.485
XW-2D 25 Feb 06:09:34 06:13:22 69° 283° (WNW) 06:17:08 145.860 - 145.880
XW-2B 25 Feb 06:14:38 06:18:25 60° 284° (WNW) 06:22:08 145.730 - 145.750
XW-2A 25 Feb 06:19:17 06:21:30 16° 95° (E) 06:23:42 145.665 - 145.685
STRAND 1 25 Feb 06:23:08 06:28:15 75° 75° (ENE) 06:33:24 437.568
XW-2C 25 Feb 06:23:22 06:27:02 44° 285° (WNW) 06:30:39 145.795 - 145.815
DOVE 4 25 Feb 06:26:02 06:30:37 48° 285° (WNW) 06:35:27 437.250
ISS 25 Feb 06:27:47 06:30:32 25° 130° (SE) 06:33:17 437.550
NUDT-PHONESAT 25 Feb 06:36:01 06:39:31 37° 286° (WNW) 06:42:58 437.300
LilacSat-2 25 Feb 06:40:24 06:43:38 26° 288° (WNW) 06:46:50 437.200
BEESAT 2 25 Feb 06:46:04 06:49:51 45° 302° (WNW) 06:53:41 435.950
Tancredo 1 25 Feb 06:53:22 06:56:33 54° 134° (SE) 06:59:45 437.200
CUTE 1.7 + AOD 2 25 Feb 07:03:54 07:07:56 43° 99° (E) 07:11:55 437.475
HO-68 25 Feb 07:19:02 07:26:08 64° 103° (ESE) 07:33:12 435.675
CUBEBUG 2 25 Feb 07:20:44 07:24:58 31° 96° (E) 07:29:07 437.445
CUTE-I 25 Feb 07:31:50 07:35:19 18° 295° (WNW) 07:38:49 437.470
AO-73 25 Feb 07:34:01 07:36:00 13° 92° (E) 07:37:56 145.935
Oscar 11 25 Feb 07:40:56 07:42:44 12° 92° (E) 07:44:32 .
SO-50 25 Feb 07:43:11 07:47:25 42° 246° (WSW) 07:51:37 436.795
AAUSAT CUBESAT 2 25 Feb 07:51:02 07:55:01 48° 99° (E) 07:58:58 437.432
XW-2A 25 Feb 07:51:31 07:54:12 21° 288° (WNW) 07:56:51 145.665 - 145.685
FO-29 25 Feb 07:55:13 07:56:07 10° 54° (NE) 07:57:02 435.910
UWE-3 25 Feb 07:58:10 08:02:43 50° 99° (E) 08:07:09 435.000/436.395/437.385
SEEDS 25 Feb 08:01:25 08:05:29 54° 284° (WNW) 08:09:31 437.485
ISS 25 Feb 08:04:06 08:06:55 26° 325° (NW) 08:09:45 437.550
ZACube-1 25 Feb 08:19:31 08:23:56 49° 99° (E) 08:28:15 437.345
O/OREOS (USA 219) 25 Feb 08:27:37 08:32:13 75° 70° (ENE) 08:36:47 437.305
Tancredo 1 25 Feb 08:31:01 08:33:03 15° 330° (NNW) 08:35:06 437.200
CUTE 1.7 + AOD 2 25 Feb 08:41:26 08:43:20 13° 293° (WNW) 08:45:13 437.475
PRISM 25 Feb 08:53:33 08:57:34 57° 259° (W) 09:01:35 437.425
CUBEBUG 2 25 Feb 08:57:40 09:01:21 23° 291° (WNW) 09:04:59 437.445
UNISAT 6 25 Feb 09:02:20 09:06:44 61° 75° (ENE) 09:11:16 437.425
TIGRISAT 25 Feb 09:02:41 09:07:03 56° 75° (ENE) 09:11:33 435.000
HO-68 25 Feb 09:08:05 09:13:12 22° 299° (WNW) 09:18:20 435.675
AO-73 25 Feb 09:08:06 09:12:27 48° 286° (WNW) 09:16:43 145.935
Oscar 11 25 Feb 09:14:56 09:19:04 44° 286° (WNW) 09:23:09 .
DELFI C3 25 Feb 09:24:15 09:28:10 67° 102° (ESE) 09:32:03 145.870
AAUSAT CUBESAT 2 25 Feb 09:28:48 09:30:00 11° 293° (WNW) 09:31:13 437.432
FO-29 25 Feb 09:32:36 09:39:27 62° 72° (ENE) 09:47:01 435.910
YUBILEINY 25 Feb 09:35:45 09:44:11 52° 90° (E) 09:52:35 435.215
UWE-3 25 Feb 09:36:16 09:38:40 14° 294° (WNW) 09:41:02 435.000/436.395/437.385
DUCHIFAT 1 25 Feb 09:53:40 09:55:47 14° 67° (ENE) 09:57:54 145.980
ZACube-1 25 Feb 09:57:32 09:59:42 13° 294° (WNW) 10:01:52 437.345
EO-79 25 Feb 10:03:13 10:06:26 22° 70° (ENE) 10:09:41 145.935-145.965
LO-87 25 Feb 10:08:14 10:11:06 22° 96° (E) 10:13:58 145.935 - 145.965
AIST 2D 25 Feb 10:13:49 10:17:13 45° 75° (ENE) 10:20:39 435.315
NANOSAT C BR1 25 Feb 10:19:38 10:23:20 31° 72° (ENE) 10:27:04 145.865
POLYITAN 1 25 Feb 10:20:02 10:23:52 34° 72° (ENE) 10:27:44 437.675
QB50P2 25 Feb 10:22:51 10:26:49 40° 73° (ENE) 10:30:48 145.880/145.840
TIGRISAT 25 Feb 10:43:03 10:44:04 11° 269° (W) 10:45:05 435.000
BUGSAT 1 25 Feb 10:49:42 10:52:37 20° 69° (ENE) 10:55:35 437.445
ESTCUBE 1 25 Feb 11:13:22 11:17:50 72° 101° (E) 11:22:17 437.505/2401.250
FO-29 25 Feb 11:19:45 11:24:57 22° 270° (W) 11:30:31 435.910
DUCHIFAT 1 25 Feb 11:27:05 11:31:02 41° 261° (W) 11:35:03 145.980
DX 1 25 Feb 11:31:43 11:33:47 13° 94° (E) 11:35:51 434.975-435.025
YUBILEINY 25 Feb 11:33:45 11:41:12 30° 287° (WNW) 11:48:41 435.215
EO-79 25 Feb 11:38:32 11:42:02 25° 264° (W) 11:45:33 145.935-145.965
VELOX 1 25 Feb 11:38:36 11:42:46 40° 99° (E) 11:46:56 145.980
LO-87 25 Feb 11:41:58 11:44:22 17° 289° (WNW) 11:46:47 145.935 - 145.965
UKube-1 25 Feb 11:43:53 11:45:43 12° 93° (E) 11:47:34 .
SPROUT 25 Feb 11:46:08 11:50:13 40° 99° (E) 11:54:16 437.525
NANOSAT C BR1 25 Feb 11:56:16 11:59:04 17° 266° (W) 12:01:54 145.865
POLYITAN 1 25 Feb 11:57:08 11:59:43 16° 266° (W) 12:02:18 437.675
QB50P2 25 Feb 12:00:42 12:02:45 13° 267° (W) 12:04:49 145.880/145.840
Oscar 19 25 Feb 12:06:19 12:11:11 44° 72° (ENE) 12:16:04 437.125/150
50 SAT 25 Feb 12:09:10 12:12:37 70° 101° (E) 12:16:04 437.505
BUGSAT 1 25 Feb 12:24:25 12:27:47 25° 263° (W) 12:31:13 437.445
Gurwin Techsat 1B 25 Feb 12:51:50 12:57:06 68° 75° (ENE) 13:02:23 435.225
ISS 25 Feb 12:59:50 13:00:22 10° 25° (NNE) 13:00:54 437.550
DX 1 25 Feb 13:06:00 13:10:08 43° 287° (WNW) 13:14:16 434.975-435.025
VELOX 1 25 Feb 13:16:17 13:18:51 15° 293° (WNW) 13:21:25 145.980
UKube-1 25 Feb 13:17:48 13:21:56 45° 287° (WNW) 13:26:02 .
SPROUT 25 Feb 13:23:22 13:25:45 15° 293° (WNW) 13:28:07 437.525
Tancredo 1 25 Feb 13:24:02 13:26:01 15° 30° (NNE) 13:28:01 437.200
AO-85 25 Feb 13:25:31 13:29:23 64° 243° (WSW) 13:33:22 145.980
ITUPSAT 1 25 Feb 13:26:19 13:27:38 11° 92° (E) 13:28:57 437.325
BEESAT 25 Feb 13:31:50 13:34:12 14° 93° (E) 13:36:33 436.000
AO-7 25 Feb 13:38:58 13:46:31 39° 64° (ENE) 13:54:04 .
Oscar 19 25 Feb 13:47:13 13:50:40 18° 266° (W) 13:54:06 437.125/150
ITAMSAT 1 25 Feb 14:19:09 14:24:20 84° 76° (ENE) 14:29:35 435.822/435.867
BEESAT 3 25 Feb 14:28:23 14:31:56 29° 55° (NE) 14:35:27 437.485
ISS 25 Feb 14:34:05 14:37:21 69° 42° (NE) 14:40:36 437.550
PCSat 25 Feb 14:34:39 14:38:37 21° 106° (ESE) 14:42:35 145.827
Gurwin Techsat 1B 25 Feb 14:35:35 14:37:26 12° 268° (W) 14:39:19 435.225
RS-15 25 Feb 14:59:15 15:06:55 20° 99° (E) 15:14:43 29.354- 29.394
Tancredo 1 25 Feb 14:59:23 15:02:31 53° 226° (SW) 15:05:38 437.200
ITUPSAT 1 25 Feb 15:01:04 15:05:48 61° 286° (WNW) 15:10:30 437.325
BEESAT 2 25 Feb 15:07:03 15:10:42 31° 56° (NE) 15:14:19 435.950
BEESAT 25 Feb 15:07:35 15:12:12 50° 287° (WNW) 15:16:48 436.000
NO-84 25 Feb 15:25:15 15:27:44 23° 124° (SE) 15:30:22 435.350 FM
MOZHAYETS 4 25 Feb 15:26:10 15:30:47 88° 289° (WNW) 15:35:22
